Temperature
18 18 18 18 18 18 18 18 18 18 18 19 19 19 18 18 18 18 18 18 18 18 18 18 18 18 19 18 18 18 18 18 18 18 18 18 18 18 18 18 18 18 18
18 18 18 18 18 18 18 18 18 18 18 18 18 18 18 18 18 18 18 18 18 18 18 18 18 18 18 18 18 18 18 18 18 18 18 18 18 18 18 18 18 18 18
18 18 18 18 18 18 18 18 18 18 18 18 18 18 18 18 18 18 18 17 17 18 18 18 18 18 18 18 18 18 18 18 18 18 18 18 18 18 18 18 18 18 18
18 18 18 18 18 18 18 18 18 18 18 18 17 17 17 17 17 17 17 17 17 17 17 17 17 18 18 18 18 18 18 18 18 18 18 18 18 18 18 18 18 18 18
18 18 18 18 18 18 18 18 18 17 17 17 17 17 17 17 17 17 17 17 17 17 17 17 17 17 17 18 18 18 18 18 18 18 18 18 18 18 18 18 18 18 18
18 18 18 18 18 18 18 17 17 17 17 17 17 17 17 17 17 17 17 17 17 17 17 17 17 17 17 17 18 18 18 18 18 18 17 18 18 18 18 18 18 18 18
18 18 18 18 18 18 17 17 17 17 17 16 16 16 16 16 16 16 16 16 16 16 16 17 17 17 17 17 17 17 17 18 18 17 17 17 17 18 18 18 18 18 18
19 18 18 18 18 17 17 17 17 17 16 16 16 16 16 16 16 16 16 16 16 16 16 16 16 17 17 17 17 17 17 17 17 17 17 17 17 17 18 18 18 18 18
19 19 18 18 18 17 17 17 17 16 16 16 16 16 16 15 15 15 15 15 15 15 15 16 16 16 16 17 17 17 17 17 17 17 17 17 17 17 17 18 18 18 18
19 19 18 18 18 17 17 17 17 16 16 16 16 16 15 15 15 15 15 15 15 15 15 15 15 16 16 16 16 16 17 17 17 17 17 17 17 17 17 18 18 18 18
19 19 18 18 18 18 17 17 17 16 16 16 16 16 15 15 15 15 15 15 15 15 15 15 15 15 15 16 16 16 16 16 17 17 17 17 17 17 17 17 18 18 18
19 19 18 18 18 18 17 17 17 16 16 16 16 16 15 15 15 15 15 15 15 15 15 15 15 15 15 16 16 16 16 16 16 17 17 17 17 17 17 17 18 18 18
19 19 19 19 18 18 18 17 17 17 16 16 16 16 16 15 15 15 15 15 15 15 15 15 15 15 15 15 16 16 16 16 16 16 17 17 17 17 17 17 17 18 18
20 19 19 19 18 18 18 17 17 17 16 16 16 16 16 15 15 15 15 15 15 15 15 15 15 15 15 15 16 16 16 16 16 16 16 16 17 17 17 17 17 17 17
20 20 19 19 19 18 18 17 17 17 16 16 16 16 15 15 15 15 15 15 15 15 15 15 15 15 15 15 15 16 16 16 16 16 16 16 16 17 17 17 17 17 17
20 20 20 19 19 18 18 18 17 17 16 16 16 15 15 15 15 15 15 15 14 14 14 14 14 15 15 15 15 16 16 16 16 16 16 16 16 16 16 17 17 17 17
21 20 20 19 19 19 18 18 17 17 16 16 16 15 15 15 15 15 14 14 14 14 14 14 14 15 15 15 15 15 15 16 16 16 16 16 16 16 16 16 17 17 17
21 20 20 20 19 19 18 18 17 17 16 16 16 15 15 15 15 14 14 14 14 14 14 14 14 15 15 15 15 15 15 15 16 16 16 16 16 16 16 16 16 17 17
21 21 20 20 19 19 18 18 17 17 16 16 16 15 15 15 14 14 14 14 14 14 14 14 14 14 15 15 15 15 15 15 15 16 16 16 16 16 16 16 16 16 17
21 21 20 20 19 19 18 18 17 17 16 16 16 15 15 15 14 14 14 14 14 14 14 14 14 14 15 15 15 15 15 15 15 15 15 16 16 16 16 16 16 16 16
21 21 20 20 19 19 18 18 17 17 16 16 16 15 15 15 15 14 14 14 14 14 14 14 14 14 15 15 15 15 15 15 15 15 15 15 16 16 16 16 16 16 16
21 21 20 20 19 19 18 18 17 17 16 16 16 15 15 15 15 14 14 14 14 14 14 14 14 14 14 14 15 15 15 15 15 15 15 15 15 15 15 15 16 16 16
21 21 20 20 20 19 19 18 17 17 16 16 16 15 15 15 15 14 14 14 14 14 14 14 14 14 14 14 14 14 14 14 15 15 15 15 15 15 15 15 16 16 16
21 21 20 20 19 19 18 18 18 17 17 16 16 16 15 15 15 15 14 14 14 14 14 14 14 14 14 14 14 14 14 14 14 14 15 15 15 15 15 15 15 15 16
21 20 20 20 19 19 18 18 17 17 17 16 16 16 15 15 15 15 15 14 14 14 14 14 14 14 14 14 14 14 14 14 14 14 14 15 15 15 15 15 15 15 16
20 20 20 20 19 19 18 18 17 17 17 16 16 16 16 15 15 15 15 15 14 14 14 14 14 14 14 14 14 14 14 14 14 14 14 15 15 15 15 15 15 15 15
Wind_Speed
3 6 11 11 11 11 11 12 12 12 12 12 11 11 11 11 11 10 10 10 9 9 9 10 9 9 9 8 8 8 8 8 8 8 8 8 8 9 9 10 10 9 11
7 9 11 12 12 12 12 12 12 12 12 12 12 11 11 11 10 10 9 9 9 9 8 8 8 7 7 7 7 7 7 7 7 7 6 6 6 7 8 9 9 8 10
9 10 12 12 12 12 12 12 11 11 11 11 11 10 10 10 9 9 9 8 8 8 7 7 7 6 6 6 6 6 6 7 6 6 5 3 4 6 7 8 9 9 10
10 11 11 13 12 12 12 11 11 11 10 10 10 10 9 9 8 8 8 8 7 7 7 6 6 5 5 5 5 5 6 6 6 6 4 2 3 6 7 7 8 9 9
10 11 12 13 12 12 11 11 10 10 10 9 9 9 8 8 7 7 7 7 6 6 6 6 5 5 4 4 4 5 5 6 6 5 4 2 3 5 7 7 7 8 8
9 11 13 13 13 12 11 10 10 9 8 8 7 7 7 6 6 6 6 6 5 5 5 5 5 4 4 4 4 4 5 6 6 4 2 1 3 5 6 6 7 7 7
9 10 13 14 13 12 11 10 9 8 7 6 6 5 5 5 5 4 4 4 4 4 4 4 4 4 4 4 4 5 5 6 4 2 1 1 3 5 6 6 6 7 7
11 10 12 13 13 12 11 10 8 7 6 5 4 3 3 3 2 2 2 2 2 3 3 3 4 4 4 4 5 5 5 6 4 3 2 2 5 6 6 6 6 6 6
10 9 9 11 11 11 10 9 8 6 4 3 1 1 1 1 2 2 2 2 2 3 3 4 5 5 6 6 6 6 6 6 4 3 3 3 5 6 6 6 6 6 6
8 7 7 9 9 9 9 9 7 6 4 3 2 2 3 3 4 3 4 4 4 4 4 5 6 7 7 7 7 7 7 6 3 3 3 4 6 7 7 7 6 6 6
8 7 6 6 7 8 8 7 7 6 4 3 4 4 4 4 4 4 4 5 5 5 6 7 7 8 8 8 8 8 6 4 3 3 4 6 7 7 7 7 7 7 6
8 8 7 6 7 7 6 6 6 4 3 3 4 3 2 2 2 2 3 3 4 5 6 7 8 8 8 7 7 7 4 3 3 3 5 7 8 8 8 8 8 7 7
8 9 8 7 7 6 4 4 4 3 2 1 1 0 1 3 4 4 4 5 5 5 5 6 7 7 6 5 4 4 3 2 2 3 4 8 9 9 8 8 8 9 8
8 9 8 8 6 5 4 3 3 3 2 1 2 3 4 3 3 3 3 4 4 4 4 4 4 5 5 5 3 2 2 1 1 2 3 7 9 8 8 8 9 9 9
8 7 7 7 6 5 4 3 4 3 3 3 5 6 6 3 3 3 3 4 5 5 4 3 4 4 4 4 3 1 0 1 1 1 2 5 7 7 7 8 9 9 9
8 8 7 7 7 6 5 4 3 4 4 5 6 7 8 6 3 3 3 3 4 5 4 3 3 3 3 3 3 3 2 0 1 1 2 3 5 6 6 7 8 9 10
9 8 8 8 7 7 6 5 4 5 6 5 5 7 8 7 5 3 3 4 4 6 6 4 4 3 4 4 4 3 2 1 1 1 2 2 3 4 5 6 6 8 9
9 8 7 8 9 7 6 5 4 5 6 5 6 7 7 7 6 4 3 3 4 5 4 3 3 3 4 3 3 3 2 2 1 1 1 2 2 2 4 5 6 7 8
10 9 7 8 8 7 6 5 4 5 5 4 5 5 6 7 7 5 3 3 4 4 3 4 3 2 3 4 3 2 2 2 1 1 1 1 2 2 2 4 5 6 7
9 9 8 8 7 7 6 5 4 4 3 3 3 3 5 5 6 5 3 4 4 4 4 4 3 3 2 3 3 3 3 2 2 1 0 1 1 1 2 2 3 4 6
8 8 8 8 7 6 4 4 3 2 1 1 1 2 3 4 4 4 3 3 4 3 3 4 3 4 3 3 3 4 4 4 3 2 2 1 1 1 2 2 2 3 4
8 8 8 8 7 6 4 3 3 3 1 1 0 1 2 2 2 3 3 3 3 3 4 5 3 3 3 3 2 2 3 5 4 4 3 2 1 2 1 1 2 2 3
7 7 8 7 7 6 5 4 4 3 3 2 1 1 1 1 1 2 2 2 2 2 2 3 3 3 3 3 2 2 2 1 2 3 3 3 2 2 1 1 1 1 2
6 6 6 7 7 6 6 6 5 3 2 2 2 2 2 2 1 0 1 2 2 2 2 3 3 2 2 2 3 2 1 2 1 2 3 3 3 2 1 1 1 0 2
5 6 6 7 6 5 6 6 5 3 2 1 0 0 1 2 2 2 0 1 1 1 2 3 3 2 1 1 1 2 2 2 1 2 1 3 3 2 1 1 0 0 1
5 6 6 7 5 5 5 5 5 4 2 1 0 0 1 2 2 2 1 0 0 1 1 2 2 2 2 1 1 1 1 1 0 1 1 1 1 2 2 1 1 0 1
Wind_Direction
119 126 116 109 104 99 95 92 89 88 87 87 85 83 81 80 79 79 78 78 78 76 74 70 65 63 62 59 59 59 58 56 52 51 51 56 66 73 74 71 66 59 60
138 124 116 110 105 101 95 91 89 87 86 84 83 81 80 78 76 75 74 73 74 74 71 68 66 64 59 53 53 52 47 43 41 42 42 52 73 84 80 76 72 68 63
124 119 114 111 106 102 98 94 91 89 87 84 82 81 78 75 72 71 69 67 66 67 68 66 63 62 57 50 45 43 35 31 30 31 39 59 90 98 89 81 76 71 66
123 119 117 114 109 105 101 96 93 91 88 85 82 79 77 74 71 68 65 62 60 57 57 57 54 51 46 41 34 30 23 17 19 22 31 54 111 110 101 91 82 76 70
119 119 122 118 114 110 105 101 97 93 89 85 81 78 75 72 68 65 61 57 54 51 49 44 38 34 29 27 20 13 6 3 7 13 16 47 125 123 111 101 90 82 77
122 125 128 125 121 118 113 108 103 99 93 88 84 80 74 70 66 61 55 51 47 44 40 33 20 14 6 359 356 351 349 350 358 5 3 135 161 141 123 114 101 91 86
134 136 136 134 131 128 124 118 113 106 100 92 86 81 74 67 62 57 49 41 36 30 25 18 5 358 348 337 332 329 331 337 343 343 311 223 183 157 139 126 115 104 97
145 146 146 144 141 138 135 130 126 121 112 101 92 79 67 61 46 31 21 7 1 359 360 352 343 338 332 324 316 313 317 325 336 341 305 239 195 168 150 138 128 119 110
149 149 152 152 151 149 148 147 145 142 140 138 126 66 354 328 312 302 294 296 310 326 330 330 325 322 319 312 305 301 303 306 313 299 277 235 203 175 160 150 140 132 121
153 157 162 165 164 163 166 166 166 166 175 196 236 275 307 314 308 285 268 273 286 310 319 320 318 316 311 306 301 296 296 301 299 286 261 232 204 180 168 159 150 144 134
163 171 173 175 180 184 187 189 192 194 205 234 277 303 323 335 327 291 265 264 274 297 310 313 314 314 312 308 302 300 301 292 284 265 244 227 203 187 175 167 160 154 147
173 182 184 185 189 193 198 193 208 224 237 263 289 314 342 6 3 6 317 302 305 314 317 315 316 319 319 312 306 307 301 282 274 255 231 219 201 193 183 177 170 164 158
172 175 180 184 186 186 197 183 198 221 231 257 277 144 57 39 34 30 16 2 351 350 342 333 333 330 323 310 304 297 289 281 265 257 233 210 200 197 189 185 176 170 166
156 165 169 171 165 169 164 159 154 151 152 141 81 72 68 43 35 32 26 11 5 352 343 341 336 332 332 329 312 290 285 284 245 230 226 205 199 197 194 190 180 176 172
151 157 157 157 153 143 125 117 114 123 130 106 63 62 66 61 40 37 32 22 8 2 357 350 346 343 343 342 344 352 294 204 210 195 231 207 197 195 196 194 185 181 178
156 157 148 143 141 126 116 113 115 121 114 88 70 71 73 73 67 52 30 17 9 5 6 6 354 349 338 340 350 350 344 25 203 182 206 211 202 196 192 196 193 185 182
161 153 144 141 130 121 118 116 112 113 104 89 80 73 73 71 71 67 39 20 359 8 17 14 3 0 1 1 353 344 354 15 86 170 171 180 201 205 201 201 200 191 187
159 153 151 140 131 126 120 111 107 106 105 98 89 75 65 63 66 63 44 13 359 14 13 7 5 358 356 353 343 336 352 360 3 90 145 179 196 215 209 204 204 198 192
161 153 148 141 136 131 119 107 102 103 102 107 96 78 64 58 58 64 45 5 11 17 7 359 12 360 348 344 336 352 1 360 349 50 103 167 185 188 190 197 205 199 195
159 151 145 142 138 126 108 93 76 70 76 91 91 84 74 62 63 64 45 15 20 21 8 2 357 357 346 339 1 13 3 359 18 45 92 80 101 156 161 159 183 200 200
153 147 149 146 145 129 116 113 108 108 111 74 65 99 89 79 70 64 40 17 19 23 7 2 3 1 357 2 30 12 4 16 32 27 30 63 69 88 125 146 167 186 201
159 156 155 154 150 145 140 143 144 144 156 153 348 62 105 100 68 59 54 32 22 21 17 17 23 12 359 18 53 53 12 360 6 17 19 42 54 58 74 127 138 160 188
159 164 164 161 154 148 134 112 88 66 48 36 13 307 282 209 97 62 58 53 36 40 15 5 22 37 9 356 40 101 95 331 328 349 6 14 25 44 35 50 98 162 182
165 153 148 151 148 142 132 126 129 132 159 220 224 242 277 263 241 286 47 53 45 36 9 353 29 32 49 5 351 24 148 170 137 350 344 355 8 20 13 12 67 193 182
138 135 134 133 134 137 135 136 130 134 183 226 254 252 297 302 281 273 11 50 41 15 357 6 17 24 46 46 2 353 18 40 82 132 323 337 351 343 342 330 323 188 188
106 118 125 124 124 130 129 131 135 144 161 149 349 287 294 297 297 285 264 241 314 346 342 352 13 22 21 35 19 27 51 50 30 114 183 293 310 316 334 329 308 261 190
Height
1529 1529 1529 1529 1529 1529 1529 1529 1529 1529 1529 1529 1529 1529 1529 1529 1529 1529 1529 1529 1529 1529 1529 1528 1528 1528 1528 1528 1528 1527 1527 1527 1526 1526 1525 1525 1524 1524 1523 1522 1521 1520 1520
1529 1529 1530 1530 1530 1530 1530 1529 1529 1529 1529 1529 1529 1529 1529 1529 1529 1529 1529 1529 1529 1529 1529 1529 1528 1528 1528 1528 1528 1528 1527 1527 1527 1526 1526 1525 1525 1524 1524 1523 1522 1522 1521
1529 1530 1530 1530 1530 1530 1530 1530 1530 1529 1529 1529 1529 1529 1529 1529 1529 1529 1529 1529 1529 1529 1529 1528 1528 1528 1528 1528 1528 1528 1528 1527 1527 1527 1526 1526 1526 1525 1525 1524 1523 1523 1522
1530 1531 1531 1531 1531 1531 1531 1530 1530 1530 1529 1529 1529 1529 1529 1529 1529 1529 1529 1529 1529 1528 1528 1528 1528 1528 1528 1528 1528 1528 1527 1527 1527 1527 1527 1526 1526 1526 1525 1525 1524 1523 1523
1531 1532 1532 1532 1531 1531 1531 1531 1530 1530 1530 1529 1529 1529 1529 1529 1529 1529 1529 1528 1528 1528 1528 1527 1527 1527 1527 1527 1527 1527 1527 1527 1527 1527 1527 1527 1527 1526 1526 1526 1525 1524 1524
1532 1532 1533 1532 1532 1532 1532 1531 1531 1530 1530 1529 1529 1529 1529 1529 1529 1528 1528 1528 1528 1527 1527 1527 1526 1526 1526 1526 1527 1527 1527 1527 1527 1527 1527 1527 1527 1527 1527 1526 1526 1525 1525
1533 1533 1533 1533 1533 1533 1532 1532 1531 1531 1530 1530 1530 1530 1529 1529 1529 1528 1528 1528 1527 1527 1526 1525 1525 1525 1525 1525 1525 1525 1526 1526 1526 1526 1527 1527 1527 1527 1527 1527 1526 1526 1526
1534 1534 1534 1534 1534 1534 1533 1533 1532 1532 1531 1531 1531 1530 1530 1530 1529 1528 1528 1527 1527 1526 1525 1524 1524 1524 1524 1524 1524 1524 1524 1525 1525 1526 1526 1526 1527 1527 1527 1527 1527 1527 1526
1535 1535 1535 1535 1535 1535 1535 1534 1533 1533 1533 1532 1532 1531 1531 1530 1529 1529 1528 1527 1526 1525 1525 1524 1523 1523 1523 1523 1523 1523 1523 1524 1524 1525 1525 1526 1526 1527 1527 1527 1527 1527 1527
1536 1536 1536 1536 1536 1536 1536 1535 1535 1534 1534 1533 1533 1532 1531 1530 1530 1529 1528 1527 1526 1525 1524 1524 1523 1522 1522 1522 1522 1522 1522 1523 1523 1524 1524 1525 1526 1526 1527 1527 1528 1528 1528
1537 1537 1537 1537 1537 1537 1536 1536 1536 1535 1535 1534 1533 1532 1532 1531 1530 1529 1528 1527 1526 1525 1524 1524 1523 1522 1522 1521 1521 1521 1521 1522 1522 1523 1523 1524 1525 1526 1526 1527 1528 1528 1528
1537 1538 1538 1538 1538 1537 1537 1537 1536 1536 1535 1534 1534 1533 1532 1531 1530 1529 1528 1527 1526 1525 1524 1523 1522 1522 1521 1521 1521 1521 1521 1521 1521 1522 1523 1523 1524 1525 1526 1526 1527 1528 1528
1537 1537 1538 1538 1538 1538 1538 1537 1537 1536 1536 1535 1534 1533 1532 1531 1530 1529 1528 1527 1526 1525 1524 1523 1522 1521 1520 1520 1520 1520 1520 1520 1521 1521 1522 1523 1523 1524 1525 1526 1527 1528 1528
1537 1538 1538 1539 1539 1539 1538 1538 1537 1537 1536 1535 1534 1533 1532 1531 1530 1529 1528 1526 1525 1524 1523 1522 1521 1520 1520 1519 1519 1519 1519 1520 1520 1521 1521 1522 1523 1523 1524 1525 1526 1527 1528
1537 1538 1539 1539 1539 1539 1539 1539 1538 1537 1537 1536 1535 1533 1532 1531 1530 1529 1527 1526 1525 1524 1522 1521 1520 1519 1519 1518 1518 1518 1519 1519 1519 1520 1521 1521 1522 1523 1524 1525 1526 1527 1528
1537 1538 1539 1539 1540 1540 1539 1539 1538 1538 1537 1536 1535 1534 1532 1531 1530 1528 1527 1526 1524 1523 1521 1520 1519 1518 1517 1517 1517 1518 1518 1518 1519 1519 1520 1521 1521 1522 1523 1524 1525 1526 1528
1537 1538 1539 1540 1540 1540 1540 1539 1539 1538 1537 1536 1535 1534 1532 1531 1530 1528 1527 1525 1524 1522 1521 1519 1518 1517 1516 1516 1516 1516 1517 1518 1518 1518 1519 1520 1521 1522 1522 1523 1525 1526 1527
1537 1538 1539 1540 1540 1540 1540 1540 1539 1539 1538 1537 1535 1534 1532 1531 1530 1528 1527 1525 1524 1522 1520 1519 1518 1517 1516 1515 1515 1515 1516 1517 1517 1518 1518 1519 1520 1521 1522 1523 1524 1525 1527
1537 1538 1539 1540 1540 1540 1540 1540 1540 1539 1538 1537 1536 1534 1533 1531 1530 1528 1527 1525 1524 1522 1520 1519 1517 1516 1515 1515 1514 1515 1515 1515 1516 1517 1518 1519 1519 1520 1521 1522 1523 1525 1526
1537 1538 1539 1540 1540 1540 1540 1540 1540 1539 1539 1537 1536 1535 1534 1532 1530 1529 1527 1526 1524 1522 1521 1519 1518 1517 1515 1515 1514 1514 1514 1515 1516 1516 1517 1518 1518 1519 1520 1521 1522 1524 1526
1537 1538 1539 1539 1540 1540 1540 1540 1540 1539 1539 1538 1537 1536 1534 1533 1531 1529 1527 1526 1524 1523 1521 1520 1518 1517 1516 1515 1514 1514 1514 1515 1516 1516 1517 1517 1518 1518 1519 1521 1522 1523 1525
1536 1537 1538 1539 1540 1540 1540 1540 1540 1539 1539 1538 1537 1536 1535 1533 1532 1530 1528 1527 1525 1524 1522 1521 1519 1518 1517 1516 1515 1515 1515 1517 1516 1516 1517 1517 1518 1518 1519 1520 1522 1523 1524
1535 1537 1538 1539 1540 1540 1540 1540 1540 1539 1539 1538 1538 1537 1536 1534 1533 1531 1529 1528 1526 1524 1523 1522 1520 1519 1518 1517 1517 1517 1516 1516 1516 1517 1517 1517 1517 1518 1519 1520 1521 1522 1524
1535 1536 1537 1538 1539 1540 1540 1540 1540 1539 1539 1538 1538 1537 1536 1535 1534 1532 1530 1529 1527 1525 1524 1523 1522 1521 1520 1519 1518 1518 1518 1517 1517 1517 1518 1517 1517 1518 1519 1519 1520 1522 1523
1534 1535 1536 1538 1539 1539 1540 1540 1539 1539 1539 1538 1538 1537 1536 1535 1534 1533 1531 1530 1528 1527 1525 1524 1523 1522 1521 1520 1519 1519 1518 1518 1518 1518 1517 1518 1518 1518 1519 1519 1520 1521 1522
1533 1534 1536 1537 1538 1539 1539 1539 1539 1539 1538 1538 1537 1537 1536 1535 1534 1533 1532 1531 1529 1528 1526 1525 1524 1523 1522 1521 1520 1520 1519 1519 1518 1518 1518 1517 1518 1518 1518 1519 1520 1521 1521